Бишкек

Киргизия     42°52′47″N   74°36′51″E
В апреле 2022 года жителям России запретили посещать сайт meteo.paraplan.net по решению Генеральной прокуратуры. Аудитория сайта уменьшилась в 10 раз. Владельцы сайта не видят смысла в поддержке погодного сервера в таких условиях. Сайт будет закрыт в октябре.
темп.,
°C
ветер,
м/с
пор.,
м/с
влажн.,
%
обл.,
%
осадки,
мм/ч
давл.,
гПа
погр.,
м
30 сентября, пт
пт3000:00+12зюз013999 0.0 101618
03:00+11ссв1241100 0.0 101522
06:00+10ссв0145100 0.0 101712
09:00+13сз1138100 0.0 1018194
12:00+17ссз222990 0.0 1016964
15:00+20сз3324100 0.0 10151695
18:00+18с342664 0.0 1016314
21:00+10зсз1335100 0.0 102043
1 октября, сб
сб100:00+9сз1229100 0.0 102141
03:00+8св2326100 0.0 1021140
06:00+7всв2329100 0.1 1023116
09:00+8св4525100 0.0 1023283
12:00+14ссв432361 0.0 1022811
15:00+16ссз432015 0.0 10201173
18:00+14с441746 0.0 1021401
21:00+8св13224 0.0 102358
2 октября, вс
вс200:00+6всв12240 0.0 102229
03:00+5св23250 0.0 102245
06:00+3ссв112944 0.0 102311
09:00+8всв22245 0.0 1022209
12:00+16с32202 0.0 1019660
15:00+20с54170 0.0 10171146
18:00+17сз35184 0.0 1017145
21:00+11юз22266 0.0 101825
3 октября, пн
пн300:00+9вюв223180 0.0 101712
03:00+8всв113315 0.0 101611
06:00+7зюз003589 0.0 101710
09:00+12ссз012677 0.0 1016179
12:00+18с211879 0.0 1014634
15:00+23сз4415100 0.0 10131278
18:00+20зсз3419100 0.0 101691
21:00+16вюв3525100 0.0 101897
4 октября, вт
вт400:00+15вюв7114694 0.0 1016244
03:00+13вюв511508 0.0 1015169
06:00+12зюз3550100 0.0 101779
09:00+14з3548100 0.1 1018285
12:00+19зсз2233100 0.2 1018821
15:00+22сз3327100 0.1 10171467
18:00+20з4731100 0.2 1018171
21:00+15зюз3462100 0.3 102168